Zurück zum Katalog

IRIDE-MS1-EAG2-10

AktivMilitärSSO
NORAD 68451·PAYLOAD·🇮🇹 Italy

Gestartet Mar 30, 2026 von Vandenberg Space Force Base

Loading…

Nächste Überflüge (nächste 24 Stunden)

TLE

AktuellSource: Space-Track

Epoche: Sep 14, 2026, 08:40 UTC

1 68451U 26067AM  26257.36139952  .00006210  00000-0  29232-3 0  9995
2 68451  97.4601 214.6877 0003646  80.8685 279.2963 15.19895478 25486

Verfolge IRIDE-MS1-EAG2-10 in Echtzeit mit AllMySat

Download on the App Store